Iowa City, IA

8:25 AM CST on December 13, 2019 (GMT -0600)
Iowa City Municipal

Weather History for KIOW - July, 2019

Change the Weather History Date:

Monday, July 22, 2019

  Actual Average Record
Temperature  
Mean Temperature 74 °F 75 °F  
Max Temperature 84 °F 85 °F 100 °F (1983)
Min Temperature 64 °F 65 °F 51 °F (2000)
Degree Days  
Heating Degree Days 0 0  
Month to date heating degree days 0 0  
Since 1 June heating degree days 6 17  
Since 1 July heating degree days 0 0  
Cooling Degree Days 9 10  
Month to date cooling degree days 348 220  
Year to date cooling degree days 592 492  
Since 1 June cooling degree days 546 431  
Growing Degree Days 27 (Base 50)    
Moisture  
Dew Point 58 °F    
Average Humidity 57    
Maximum Humidity 73    
Minimum Humidity 40    
Precipitation  
Precipitation 0.00 in 0.16 in 2.38 in (2011)
Month to date precipitation 0.85 3.83  
Year to date precipitation 24.58 20.53  
Sea Level Pressure  
Sea Level Pressure 30.11 in    
Wind  
Wind Speed 10 mph (North)    
Max Wind Speed 21 mph    
Max Gust Speed 26 mph    
Visibility 10 miles    
Events      
T = Trace of Precipitation, MM = Missing Value Source: NWS Daily Summary

Daily Weather History Graph

Daily Weather History Graph

Search for Another Location

Airport or City:

Astronomy

Jul. 22, 2019 Rise Set
Actual Time 5:50 AM CDT 8:33 PM CDT
Civil Twilight 5:18 AM CDT 9:06 PM CDT
Nautical Twilight 4:37 AM CDT 9:46 PM CDT
Astronomical Twilight 3:51 AM CDT 10:32 PM CDT
Moon 11:50 PM CDT (7/22) 11:11 AM CDT (7/22)
Length of Visible Light 15h 47m
Length of Day
14h 43m
Waning Gibbous, 72% of the Moon is Illuminated
Jul 22
Waning Gibbous
Jul 24
Last Quarter
Jul 31
New
Aug 7
First Quarter
Aug 15
Full

Hourly Weather History & Observations

Time (CDT) Temp. Heat Index Dew Point Humidity Pressure Visibility Wind Dir Wind Speed Gust Speed Precip Events Conditions
12:52 AM 73.9 °F - 57.9 °F 57% 30.04 in 10.0 mi North 6.9 mph - N/A   Clear
1:52 AM 73.0 °F - 59.0 °F 61% 30.04 in 10.0 mi North 8.1 mph - N/A   Clear
2:52 AM 73.9 °F - 59.0 °F 59% 30.04 in 10.0 mi NW 6.9 mph - N/A   Partly Cloudy
3:52 AM 73.0 °F - 59.0 °F 61% 30.04 in 10.0 mi NNW 6.9 mph - N/A   Clear
4:52 AM 71.1 °F - 59.0 °F 66% 30.05 in 10.0 mi NNW 5.8 mph - N/A   Clear
5:52 AM 71.1 °F - 60.1 °F 68% 30.07 in 10.0 mi NNW 5.8 mph - N/A   Clear
6:52 AM 71.1 °F - 60.1 °F 68% 30.08 in 10.0 mi NNW 6.9 mph - N/A   Clear
7:52 AM 73.0 °F - 61.0 °F 66% 30.09 in 10.0 mi North 10.4 mph - N/A   Clear
8:52 AM 75.0 °F - 62.1 °F 64% 30.10 in 10.0 mi North 11.5 mph - N/A   Clear
9:52 AM 78.1 °F - 63.0 °F 60% 30.10 in 10.0 mi North 11.5 mph - N/A   Clear
10:52 AM 79.0 °F - 63.0 °F 58% 30.11 in 10.0 mi North 15.0 mph - N/A   Scattered Clouds
11:52 AM 82.0 °F 83.0 °F 62.1 °F 51% 30.12 in 10.0 mi North 16.1 mph - N/A   Mostly Cloudy
12:52 PM 80.1 °F 80.9 °F 60.1 °F 50% 30.12 in 10.0 mi North 13.8 mph - N/A   Scattered Clouds
1:52 PM 82.9 °F 82.6 °F 57.9 °F 42% 30.12 in 10.0 mi NNE 12.7 mph 23.0 mph N/A   Scattered Clouds
2:52 PM 84.0 °F 83.5 °F 57.9 °F 41% 30.12 in 10.0 mi North 15.0 mph - N/A   Partly Cloudy
3:52 PM 82.9 °F 82.4 °F 57.0 °F 41% 30.12 in 10.0 mi North 11.5 mph - N/A   Partly Cloudy
4:52 PM 82.9 °F 82.4 °F 57.0 °F 41% 30.12 in 10.0 mi North 11.5 mph - N/A   Partly Cloudy
5:52 PM 81.0 °F 80.8 °F 55.9 °F 42% 30.12 in 10.0 mi NNE 12.7 mph - N/A   Partly Cloudy
6:52 PM 79.0 °F - 54.0 °F 42% 30.12 in 10.0 mi North 12.7 mph - N/A   Clear
7:52 PM 77.0 °F - 53.1 °F 43% 30.14 in 10.0 mi North 9.2 mph 19.6 mph N/A   Clear
8:52 PM 73.9 °F - 54.0 °F 50% 30.15 in 10.0 mi North 8.1 mph - N/A   Clear
9:52 PM 72.0 °F - 54.0 °F 53% 30.17 in 10.0 mi North 8.1 mph - N/A   Clear
10:52 PM 70.0 °F - 54.0 °F 57% 30.17 in 10.0 mi North 4.6 mph - N/A   Clear
11:52 PM 64.9 °F - 55.0 °F 70% 30.18 in 10.0 mi NW 3.5 mph - N/A   Clear